This is the latest recevied weather packets stored in our database for station/object KF6YUA. If no packets are shown the sender has not sent any weather packets the latest 10 day(s).
| Time | Temp. | Humidity | Pressure | Rain* | Wind** | Luminosity | Snow |
|---|---|---|---|---|---|---|---|
| 1777976606 | 10.56° C | 99% | 1016.5 hPa | 0 mm | - | 0 W/m² | - |
| 1777976302 | 10.56° C | 99% | 1016.8 hPa | 0 mm | - | 0 W/m² | - |
| 1777975997 | 11.11° C | 99% | 1016.5 hPa | 0 mm | - | 0 W/m² | - |
| 1777975693 | 11.11° C | 99% | 1016.4 hPa | 0 mm | - | 0 W/m² | - |
| 1777975390 | 11.11° C | 99% | 1016.2 hPa | 0 mm | - | 0 W/m² | - |
| 1777975085 | 10.56° C | 99% | 1016.5 hPa | 0 mm | - | 0 W/m² | - |
| 1777974783 | 10.56° C | 99% | 1016.5 hPa | 0.51 mm | - | 0 W/m² | - |
| 1777974479 | 10.56° C | 99% | 1016.3 hPa | 0.51 mm | - | 0 W/m² | - |
| 1777974176 | 10.56° C | 99% | 1016.3 hPa | 0 mm | - | 0 W/m² | - |
| 1777973871 | 11.11° C | 99% | 1016.5 hPa | 0 mm | - | 0 W/m² | - |
| 1777973569 | 10.56° C | 99% | 1016.4 hPa | 0 mm | - | 0 W/m² | - |
| 1777973266 | 10.56° C | 99% | 1016.3 hPa | 0.51 mm | - | 0 W/m² | - |
| 1777972964 | 10.56° C | 99% | 1016.2 hPa | 0.51 mm | - | 0 W/m² | - |
| 1777972661 | 10.56° C | 99% | 1016.4 hPa | 0 mm | - | 0 W/m² | - |
| 1777972359 | 10.56° C | 99% | 1016.5 hPa | 0.51 mm | - | 0 W/m² | - |
| 1777972057 | 11.11° C | 99% | 1017 hPa | 3.56 mm | - | 0 W/m² | - |
| 1777971755 | 11.11° C | 99% | 1017.1 hPa | 4.83 mm | - | 0 W/m² | - |
| 1777971452 | 11.11° C | 99% | 1017 hPa | 4.83 mm | - | 0 W/m² | - |
| 1777971150 | 11.11° C | 99% | 1017 hPa | 1.78 mm | - | 0 W/m² | - |
| 1777970847 | 10.56° C | 99% | 1016.7 hPa | 0 mm | - | 0 W/m² | - |
| 1777970546 | 11.11° C | 99% | 1016.9 hPa | 0 mm | - | 0 W/m² | - |
| 1777970243 | 10.56° C | 99% | 1017.1 hPa | 0 mm | - | 0 W/m² | - |
| 1777969939 | 11.11° C | 99% | 1016.8 hPa | 0 mm | - | 0 W/m² | - |
| 1777969635 | 11.11° C | 99% | 1016.9 hPa | 0 mm | - | 0 W/m² | - |
| 1777969333 | 11.11° C | 99% | 1016.9 hPa | 0 mm | - | 0 W/m² | - |
* Rain latest hour (hover to see other rain measurements)
** Current wind speed in m/s (hover to see current wind gust speed)